Weather History for Cozumel, Mexico

Change the Weather History Date:

Thursday, August 30, 2012

  Actual Average Record
Temperature  
Mean Temperature 80 °F -  
Max Temperature 84 °F 89 °F 93 °F (1999)
Min Temperature 75 °F 76 °F 69 °F (2013)
Cooling Degree Days 14    
Growing Degree Days 30 (Base 50)    
Moisture  
Dew Point 73 °F    
Average Humidity 81    
Maximum Humidity 94    
Minimum Humidity 62    
Precipitation  
Precipitation 2.45 in - - ()
Sea Level Pressure  
Sea Level Pressure 29.91 in    
Wind  
Wind Speed 6 mph ()    
Max Wind Speed 17 mph    
Max Gust Speed -    
Visibility 7.3 miles    
Events      
Averages and records for this station are not official NWS values.
T = Trace of Precipitation, MM = Missing Value Source: Averaged Metar Reports

Daily Weather History Graph

Daily Weather History Graph

Search for Another Location

Airport:

Trip Planner

Search our weather history database for the weather conditions in past years. The results will help you decide how hot, cold, wet, or windy it might be!

Date:

Astronomy

Aug. 30, 2012 Rise Set
Actual Time 6:31 AM CDT 7:04 PM CDT
Civil Twilight 6:08 AM CDT 7:27 PM CDT
Nautical Twilight 5:42 AM CDT 7:53 PM CDT
Astronomical Twilight 5:16 AM CDT 8:19 PM CDT
Moon 6:22 PM CDT (8/30) 5:32 AM CDT (8/30)
Length of Visible Light 13h 18m
Length of Day
12h 33m
Waxing Gibbous, 99% of the Moon is Illuminated
Aug 30
Waxing Gibbous
Aug 31
Full
Sep 8
Last Quarter
Sep 15
New
Sep 22
First Quarter

Hourly Weather History & Observations

Time (CDT) Temp. Heat Index Dew Point Humidity Pressure Visibility Wind Dir Wind Speed Gust Speed Precip Events Conditions
12:41 AM 77.0 °F - 73.4 °F 89% 29.85 in 7.0 mi SE 6.9 mph - N/A   Scattered Clouds
1:42 AM 77.0 °F - 73.4 °F 89% 29.86 in 7.0 mi Calm Calm - N/A   Scattered Clouds
2:40 AM 77.0 °F - 73.4 °F 89% 29.85 in 7.0 mi SE 4.6 mph - N/A   Scattered Clouds
3:40 AM 75.2 °F - 73.4 °F 94% 29.88 in 7.0 mi Calm Calm - N/A   Scattered Clouds
4:40 AM 77.0 °F - 71.6 °F 83% 29.86 in 7.0 mi SE 5.8 mph - N/A   Scattered Clouds
5:43 AM 77.0 °F - 71.6 °F 83% 29.87 in 7.0 mi SE 4.6 mph - N/A   Scattered Clouds
6:43 AM 75.2 °F - 71.6 °F 89% 29.85 in 7.0 mi SE 4.6 mph - N/A   Mostly Cloudy
7:40 AM 78.8 °F - 73.4 °F 83% 29.89 in 7.0 mi SE 5.8 mph - N/A   Mostly Cloudy
8:49 AM 82.4 °F 88.2 °F 73.4 °F 74% 29.91 in 7.0 mi SE 8.1 mph - N/A   Mostly Cloudy
9:44 AM 84.2 °F 90.9 °F 73.4 °F 70% 29.95 in 8.0 mi SE 12.7 mph - N/A   Mostly Cloudy
10:54 AM 84.2 °F 92.3 °F 75.2 °F 74% 29.94 in 8.0 mi SE 13.8 mph - N/A   Mostly Cloudy
11:40 AM 84.2 °F 92.3 °F 75.2 °F 74% 29.94 in 7.0 mi SE 17.3 mph - N/A   Mostly Cloudy
12:43 PM 75.2 °F - 73.4 °F 94% 29.91 in 7.0 mi SE 6.9 mph - N/A   Mostly Cloudy
1:44 PM 80.6 °F 85.4 °F 73.4 °F 79% 29.94 in 7.0 mi ESE 8.1 mph - N/A   Mostly Cloudy
2:43 PM 84.2 °F 89.6 °F 71.6 °F 66% 29.90 in 8.0 mi East 13.8 mph - N/A   Mostly Cloudy
3:40 PM 84.2 °F 88.4 °F 69.8 °F 62% 29.92 in 8.0 mi SE 9.2 mph - N/A   Mostly Cloudy
4:40 PM 80.6 °F 84.6 °F 71.6 °F 74% 29.91 in 8.0 mi ESE 13.8 mph - N/A   Mostly Cloudy
5:41 PM 82.4 °F 88.2 °F 73.4 °F 74% 29.91 in 8.0 mi ESE 13.8 mph - N/A   Mostly Cloudy
6:44 PM 78.8 °F - 73.4 °F 83% 29.88 in 8.0 mi ESE 11.5 mph - N/A   Scattered Clouds
7:41 PM 78.8 °F - 73.4 °F 83% 29.92 in 8.0 mi ESE 6.9 mph - N/A   Scattered Clouds
8:47 PM 78.8 °F - 73.4 °F 83% 29.96 in 7.0 mi SE 3.5 mph - N/A   Scattered Clouds
9:49 PM 77.0 °F - 71.6 °F 83% 29.99 in 7.0 mi ESE 6.9 mph - N/A   Scattered Clouds
10:41 PM 75.2 °F - 71.6 °F 89% 29.99 in 7.0 mi SE 3.5 mph - N/A   Mostly Cloudy
11:46 PM 75.2 °F - 73.4 °F 94% 29.99 in 7.0 mi ESE 5.8 mph - N/A   Scattered Clouds